[[{"header":{"parameterUnit":"m.s-1","parameterCategory":1,"la1":30.2991,"la2":30.254,"lo1":-89.0895,"lo2":-89.0444,"dy":0.0017,"dx":0.0017,"nx":28,"ny":28,"refTime":"2024-06-04T09:00:00:Z","depth":0,"parameterNumber":2,"parameterNumberName":"U-component_of_WINDS"},"data":[0,0,0,0,0,0,0,0,0,0,0,0,0,0,0,0,0,0,0,0,0,0,0,0,0,0,0,0,0,0,0,0,0,0,0,0,0,0,0,0,0,0,0,0,0,0,0,0,0,0,0,0,0,0,0,0,0,0,3.9275,3.9276,0,3.9439,3.9441,3.9442,3.9439,3.9437,3.9435,3.9433,3.9597,3.9603,3.961,0,0,0,0,0,0,0,0,0,0,0,0,0,3.8953,3.8959,3.9274,3.9277,3.9279,3.9438,3.9441,3.9443,3.944,3.9437,3.9434,3.9432,3.9595,3.9603,3.961,0,0,0,0,0,0,0,0,0,0,0,0,0,3.9103,3.8961,3.9274,3.9296,3.93,3.9438,3.9441,3.9444,3.944,3.9437,3.9434,3.943,3.9593,3.9602,3.9611,3.9737,0,0,3.9641,3.9645,0,0,0,0,0,0,0,0,3.9094,3.9114,3.9291,3.9295,3.9299,3.9415,3.9388,3.9542,3.9441,3.9387,3.9433,3.9429,3.9539,3.9553,3.9591,3.9745,3.9752,3.9642,3.9648,3.9652,3.9654,0,0,0,0,0,0,0,3.9084,3.9107,3.9339,3.9293,3.9299,3.9296,3.9314,3.9417,3.9479,3.9391,3.9391,3.9411,3.9541,3.9582,3.9595,3.9754,3.9641,3.965,3.9656,3.966,4.0017,4.002,0,0,0,0,0,0,3.9069,3.9099,3.9334,3.9344,3.9187,3.9305,3.9325,3.9381,3.9478,3.949,3.9414,3.941,3.9567,3.9583,3.96,3.9752,3.9652,3.9661,3.9666,4.0013,4.0018,4.0022,0,0,0,0,0,0,3.9062,3.909,3.9327,3.9222,3.9252,3.9314,3.9378,3.9386,3.9427,3.9495,3.9506,3.9444,3.9565,3.9587,3.9703,3.9758,3.9665,3.9674,4.0009,4.0014,4.002,4.0057,0,0,0,0,0,0,3.9053,3.9088,3.9138,3.9223,3.9257,3.9429,3.9381,3.9392,3.9444,3.9441,3.9527,3.9538,3.9564,3.9688,3.9712,3.9769,3.9681,4.0004,4.0011,4.0018,4.0051,4.0063,4.0074,0,0,0,0,0,3.9042,3.9141,3.914,3.9169,3.9321,3.9432,3.9452,3.9481,3.9449,3.9498,3.9542,3.9535,3.9748,3.97,3.9727,3.9788,4.0001,4.0009,4.0017,4.0046,4.0061,4.0073,0,0,0,0,0,0,3.906,3.9153,3.9153,3.9283,3.935,3.9431,3.9495,3.9496,3.9572,3.9566,3.9597,3.9617,3.9732,3.9772,3.9717,3.9913,3.987,3.9884,3.9883,3.9898,3.9909,3.9896,3.9689,0,0,0,0,0,3.908,3.9163,3.924,3.9347,3.9381,3.9432,3.9481,3.9498,3.9568,3.9596,3.9648,3.9714,3.9796,3.9849,3.9929,4.0057,4.0075,4.0112,4.0123,4.0132,4.0143,4.0212,4.0229,4.0049,4.0049,4.0049,0,0,3.912,3.9181,3.9232,3.9352,3.9406,3.949,3.9456,3.9547,3.9609,3.9609,3.9721,3.9762,3.9838,3.9961,4.0017,3.9997,4.0197,4.0143,4.0149,4.0156,4.0222,4.0239,4.0254,4.0055,4.0053,4.0053,0,0,3.9237,3.9292,3.9387,3.9442,3.9523,3.9557,3.9579,3.9661,3.9688,3.9801,3.9803,3.9876,4.0017,4.0071,4.0117,4.0252,4.0248,4.0277,4.0335,4.0401,4.0415,4.0428,4.0474,4.049,4.0288,4.0288,4.0289,0,3.9276,3.9405,3.9435,3.9527,3.9578,3.9584,3.9678,3.9729,3.9832,3.9867,3.9844,4.0019,4.0071,4.0205,4.0238,4.0276,4.0301,4.0267,4.0411,4.0424,4.0436,4.0481,4.0498,4.0291,4.0291,4.0291,4.029,0,3.9448,3.9537,3.9604,3.9703,3.9763,3.9856,3.9898,3.9955,3.9966,4.0001,4.0115,4.0177,4.0268,4.0302,4.0313,4.0437,4.0421,4.0405,4.0361,4.0456,4.0498,4.0515,4.0295,4.0294,4.0293,4.0293,0,0,3.958,3.9696,3.9719,3.9764,3.9854,3.9922,4.0014,4.0104,4.0151,4.0221,4.0297,4.0416,4.04,4.0452,4.047,4.0529,4.0629,4.0504,4.0506,4.0523,4.0766,4.0776,4.0796,4.0627,4.0631,4.0633,4.0758,0,3.9705,3.9869,3.9899,4.0042,4.0123,4.0128,4.0208,4.027,4.0305,4.0378,4.0416,4.0499,4.0473,4.0504,4.0563,4.0604,4.0678,4.0596,4.0696,4.0699,4.0675,4.0818,4.083,4.0945,4.0775,4.0778,4.078,0,3.9872,3.9947,4.0098,4.0176,4.0211,4.0282,4.0366,4.0436,4.0506,4.0527,4.0585,4.0595,4.0689,4.0643,4.077,4.0714,4.0756,4.0783,4.0788,4.0797,4.0744,4.0829,4.0983,4.0999,4.0807,4.0805,4.0803,0,3.995,4.0089,4.0197,4.0235,4.0329,4.0379,4.042,4.0487,4.0539,4.0611,4.0645,4.0727,4.0772,4.0834,4.0866,4.083,4.099,4.0947,4.1008,4.1007,4.1041,4.1038,4.1202,4.1072,4.1071,4.1071,4.1071,0,4.0085,4.0176,4.0233,4.03,4.0401,4.0434,4.0533,4.0573,4.0633,4.0705,4.0715,4.0783,4.0821,4.0894,4.0919,4.1019,4.104,4.1058,4.1063,4.1056,4.1053,4.1083,4.1075,4.1076,4.1075,4.1074,4.1073,0,4.0189,4.0231,4.0349,4.0428,4.045,4.0521,4.0588,4.0651,4.0686,4.0777,4.0801,4.0854,4.094,4.0978,4.1084,4.1101,4.1214,4.1215,4.1191,4.1192,4.125,4.1243,4.1437,4.1463,4.1318,4.1319,4.132,0,4.0271,4.0342,4.0428,4.0478,4.0521,4.0601,4.0653,4.0688,4.0742,4.0826,4.0879,4.0965,4.1036,4.1172,4.1219,4.1299,4.13,4.1363,4.1312,4.1302,4.1299,4.1293,4.1299,4.1371,4.1373,4.1374,4.1375,0,4.0411,4.0429,4.0505,4.0588,4.0651,4.0718,4.0783,4.0823,4.0867,4.0927,4.1015,4.107,4.1177,4.1262,4.1345,4.1385,4.1387,4.1391,4.1408,4.1401,4.1383,4.1391,4.1214,4.1386,4.1384,4.1384,4.1383,4.1383,4.0506,4.0568,4.0638,4.0722,4.0775,4.0836,4.0899,4.0941,4.1016,4.1107,4.1122,4.1215,4.1282,4.1394,4.1437,4.1509,4.1493,4.152,4.1526,4.1532,4.1534,4.1373,4.1524,4.1524,4.1524,4.1524,4.1523,0,4.0645,4.069,4.0767,4.0858,4.0924,4.0922,4.0993,4.1048,4.113,4.1193,4.1262,4.1362,4.1444,4.1497,4.1579,4.1626,4.1629,4.1647,4.1642,4.1651,4.1544,4.152,4.1643,4.1643,4.1643,4.1643,4.1643,4.1643,4.0724,4.0829,4.0854,4.0984,4.1028,4.1121,4.1162,4.1217,4.1267,4.1378,4.1447,4.1482,4.154,4.1626,4.17,4.1714,4.1742,4.176,4.1773,4.1672,4.1659,4.1647,4.1624,4.1767,4.1767,4.1873,4.1874,4.1875]},{"header":{"parameterUnit":"m.s-1","parameterCategory":1,"la1":30.2991,"la2":30.254,"lo1":-89.0895,"lo2":-89.0444,"dy":0.0017,"dx":0.0017,"nx":28,"ny":28,"refTime":"2024-06-04T09:00:00:Z","depth":0,"parameterNumber":3,"parameterNumberName":"V-component_of_WINDS"},"data":[0,0,0,0,0,0,0,0,0,0,0,0,0,0,0,0,0,0,0,0,0,0,0,0,0,0,0,0,0,0,0,0,0,0,0,0,0,0,0,0,0,0,0,0,0,0,0,0,0,0,0,0,0,0,0,0,0,0,0.8309,0.8311,0,0.8488,0.849,0.8492,0.8521,0.8519,0.8518,0.8516,0.8703,0.8709,0.8716,0,0,0,0,0,0,0,0,0,0,0,0,0,0.7995,0.8,0.8308,0.8311,0.8313,0.8487,0.849,0.8492,0.8521,0.8519,0.8517,0.8516,0.8701,0.8708,0.8716,0,0,0,0,0,0,0,0,0,0,0,0,0,0.8148,0.8002,0.8308,0.8348,0.8354,0.8487,0.849,0.8493,0.8522,0.8519,0.8517,0.8515,0.8698,0.8708,0.8717,0.8824,0,0,0.8747,0.8751,0,0,0,0,0,0,0,0,0.8139,0.816,0.834,0.8346,0.8352,0.8479,0.8448,0.8604,0.8522,0.8458,0.8516,0.8514,0.8631,0.8646,0.8685,0.8832,0.884,0.8748,0.8753,0.8757,0.876,0,0,0,0,0,0,0,0.8129,0.8152,0.8379,0.8343,0.835,0.8358,0.8378,0.8477,0.8555,0.8463,0.8466,0.8486,0.8634,0.8675,0.8689,0.8843,0.8747,0.8756,0.8762,0.8766,0.9088,0.9091,0,0,0,0,0,0,0.811,0.8143,0.8374,0.8385,0.8238,0.8366,0.8387,0.8441,0.8554,0.8569,0.8488,0.8487,0.866,0.8678,0.8696,0.8829,0.8757,0.8766,0.8772,0.9085,0.9089,0.9092,0,0,0,0,0,0,0.8104,0.8131,0.8367,0.8265,0.8295,0.8374,0.8434,0.8446,0.8487,0.8573,0.8588,0.8516,0.8659,0.8682,0.8792,0.8836,0.8771,0.878,0.9082,0.9086,0.909,0.9095,0,0,0,0,0,0,0.8094,0.8128,0.8169,0.8265,0.8301,0.8459,0.8436,0.8451,0.8504,0.8504,0.8603,0.8618,0.8659,0.8777,0.8801,0.8848,0.8787,0.9078,0.9084,0.9089,0.9092,0.9099,0.9106,0,0,0,0,0,0.8083,0.8164,0.8171,0.8198,0.8353,0.8461,0.8481,0.8526,0.8507,0.8549,0.8604,0.8615,0.8826,0.8788,0.8815,0.8866,0.9076,0.9082,0.9088,0.9088,0.9098,0.9105,0,0,0,0,0,0,0.8072,0.8177,0.8186,0.83,0.8371,0.8466,0.852,0.8534,0.8613,0.861,0.8663,0.8685,0.8792,0.884,0.8795,0.8975,0.895,0.8962,0.894,0.895,0.8957,0.8944,0.8795,0,0,0,0,0,0.8082,0.816,0.8248,0.834,0.8375,0.8441,0.849,0.8518,0.8595,0.8625,0.8688,0.8763,0.8846,0.89,0.8982,0.9098,0.9121,0.9146,0.9153,0.9158,0.9169,0.9235,0.9247,0.9112,0.9112,0.9112,0,0,0.8105,0.8172,0.8219,0.834,0.8398,0.8479,0.8467,0.8552,0.8613,0.8639,0.8746,0.8794,0.8881,0.8994,0.9047,0.9037,0.9211,0.9166,0.917,0.9178,0.9242,0.9255,0.9266,0.9117,0.9116,0.9115,0,0,0.8189,0.8246,0.833,0.8388,0.8476,0.852,0.8539,0.8632,0.8665,0.8773,0.8794,0.8867,0.9009,0.9071,0.912,0.9226,0.9239,0.9251,0.9288,0.9352,0.9363,0.9372,0.9412,0.9425,0.926,0.926,0.926,0,0.8207,0.8328,0.8371,0.8457,0.851,0.8534,0.862,0.8675,0.8786,0.8822,0.8809,0.8988,0.9048,0.9176,0.9202,0.9241,0.9266,0.9241,0.9357,0.9367,0.9377,0.9415,0.943,0.9261,0.9261,0.9261,0.9261,0,0.8346,0.843,0.8487,0.8592,0.8651,0.8736,0.8793,0.8848,0.8871,0.8916,0.9026,0.9098,0.9195,0.9227,0.925,0.9359,0.935,0.9346,0.9323,0.939,0.9427,0.9442,0.9263,0.9263,0.9262,0.9262,0,0,0.843,0.8557,0.8577,0.8625,0.8724,0.879,0.8876,0.8969,0.9016,0.9091,0.9166,0.9285,0.9282,0.9338,0.9368,0.9424,0.9504,0.9413,0.9416,0.9429,0.963,0.9634,0.965,0.9512,0.9515,0.9518,0.9624,0,0.8526,0.868,0.8721,0.8852,0.893,0.8954,0.9029,0.9098,0.9142,0.9216,0.9265,0.9349,0.9338,0.9372,0.9428,0.9482,0.9546,0.9475,0.9584,0.9588,0.9564,0.9669,0.9674,0.9771,0.9638,0.9641,0.9642,0,0.866,0.8737,0.8875,0.8963,0.8998,0.9064,0.9154,0.9223,0.9302,0.933,0.9392,0.9417,0.9509,0.9478,0.9606,0.9557,0.9604,0.9637,0.9642,0.9656,0.9621,0.9688,0.9803,0.9818,0.9665,0.9663,0.9662,0,0.8709,0.8847,0.8947,0.8987,0.9093,0.9139,0.9185,0.9261,0.9315,0.9393,0.9429,0.9517,0.9565,0.9633,0.9682,0.9654,0.9806,0.9779,0.9834,0.9833,0.9867,0.9864,0.9992,0.9893,0.9892,0.9892,0.9892,0,0.8814,0.8898,0.8971,0.9033,0.9128,0.9174,0.9268,0.9315,0.9382,0.9455,0.9481,0.9548,0.9607,0.9683,0.9721,0.9822,0.9843,0.987,0.9879,0.9869,0.9866,0.9902,0.9898,0.9896,0.9895,0.9894,0.9894,0,0.8886,0.8938,0.9049,0.9139,0.9163,0.923,0.9307,0.9369,0.9413,0.9504,0.9529,0.9598,0.9689,0.9743,0.9858,0.9883,0.9996,1.0001,0.9969,0.9974,1.0026,1.0021,1.0184,1.0209,1.009,1.0091,1.0092,0,0.8951,0.9016,0.9112,0.9162,0.9208,0.9288,0.9343,0.939,0.9446,0.9541,0.9592,0.9683,0.976,0.9904,0.9965,1.0054,1.0063,1.0114,1.0077,1.0064,1.0066,1.0063,1.007,1.0121,1.0122,1.0123,1.0123,0,0.906,0.9083,0.916,0.9246,0.931,0.938,0.945,0.949,0.955,0.9611,0.9704,0.9763,0.9879,0.9971,1.0064,1.0113,1.013,1.0134,1.0152,1.0143,1.0123,1.0136,0.9989,1.0131,1.013,1.013,1.0129,1.0129,0.9133,0.9192,0.9268,0.9354,0.9411,0.9476,0.9538,0.9589,0.9667,0.9765,0.9788,0.9886,0.9963,1.009,1.0141,1.0218,1.021,1.0236,1.0242,1.0249,1.0251,1.0108,1.0235,1.0235,1.0235,1.0235,1.0235,0,0.9245,0.9295,0.9373,0.947,0.9537,0.9543,0.9621,0.9678,0.9763,0.9833,0.9907,1.0013,1.0102,1.017,1.0261,1.0311,1.032,1.0333,1.0331,1.0343,1.0252,1.0228,1.0324,1.0324,1.0324,1.0324,1.0324,1.0324,0.9312,0.9413,0.9444,0.9574,0.9624,0.9719,0.9763,0.9823,0.9879,0.9997,1.007,1.0113,1.0183,1.0279,1.0361,1.0379,1.0413,1.0424,1.0444,1.0358,1.0349,1.034,1.0318,1.0431,1.0431,1.0529,1.0529,1.053]}]]